Terug naar catalogus

ATLAS 5 CENTAUR DEB

LostHEO
NORAD 57589·DEBRIS·🇺🇸 United States

Gelanceerd Oct 17, 2018 vanaf Cape Canaveral Space Force Station

Loading…

Volgende Passages (komende 24 uur)

TLE

VerouderdSource: Space-Track

Epoch: Aug 1, 2026, 23:28 UTC

1 57589U 18079HQ  26213.97845066 -.00000103  00000-0  00000-0 0  9993
2 57589  13.3654  24.4153 4639966 340.4340   6.3104  1.84241136 22231

Volg ATLAS 5 CENTAUR DEB in realtime met AllMySat

Download on the App Store